Weather History for KHKA - January, 2013

Change the Weather History Date:

Wednesday, January 23, 2013

  Actual Average Record
Temperature  
Mean Temperature 38 °F -  
Max Temperature 51 °F 49 °F 75 °F (1943)
Min Temperature 26 °F 31 °F 5 °F (1936)
Degree Days  
Heating Degree Days 26    
Moisture  
Dew Point 28 °F    
Average Humidity 68    
Maximum Humidity 92    
Minimum Humidity 51    
Precipitation  
Precipitation 0.00 in - - ()
Sea Level Pressure  
Sea Level Pressure 30.28 in    
Wind  
Wind Speed 5 mph (South)    
Max Wind Speed 12 mph    
Max Gust Speed -    
Visibility 10 miles    
Events      
Averages and records for this station are not official NWS values.
T = Trace of Precipitation, MM = Missing Value Source: NWS Daily Summary

Daily Weather History Graph

Daily Weather History Graph

Search for Another Location

Airport or City:

Trip Planner

Search our weather history database for the weather conditions in past years. The results will help you decide how hot, cold, wet, or windy it might be!

Date:

Astronomy

Jan. 23, 2013 Rise Set
Actual Time 7:05 AM CST 5:17 PM CST
Civil Twilight 6:38 AM CST 5:44 PM CST
Nautical Twilight 6:07 AM CST 6:15 PM CST
Astronomical Twilight 5:36 AM CST 6:46 PM CST
Moon 2:29 PM CST (1/23) 4:15 AM CST (1/23)
Length of Visible Light 11h 06m
Length of Day
10h 11m
Waxing Gibbous, 89% of the Moon is Illuminated
Jan 23
Waxing Gibbous
Jan 26
Full
Feb 3
Last Quarter
Feb 10
New
Feb 17
First Quarter

Hourly Weather History & Observations

Time (CST) Temp. Windchill Dew Point Humidity Pressure Visibility Wind Dir Wind Speed Gust Speed Precip Events Conditions
1:53 AM 28.9 °F 23.9 °F 18.0 °F 64% 30.38 in 10.0 mi East 4.6 mph - N/A   Overcast
2:53 AM 27.0 °F 21.6 °F 19.0 °F 72% 30.37 in 10.0 mi ESE 4.6 mph - N/A   Clear
3:53 AM 26.1 °F 19.4 °F 18.0 °F 71% 30.36 in 10.0 mi East 5.8 mph - N/A   Clear
4:53 AM 26.1 °F 19.4 °F 18.0 °F 71% 30.35 in 10.0 mi East 5.8 mph - N/A   Clear
5:53 AM 26.1 °F 20.5 °F 18.0 °F 71% 30.35 in 10.0 mi SE 4.6 mph - N/A   Clear
6:53 AM 26.1 °F - 18.0 °F 71% 30.35 in 10.0 mi Calm Calm - N/A   Clear
7:53 AM 28.0 °F - 19.9 °F 72% 30.35 in 10.0 mi Calm Calm - N/A   Clear
8:53 AM 33.1 °F 26.9 °F 19.9 °F 59% 30.35 in 10.0 mi South 6.9 mph - N/A   Clear
9:53 AM 37.0 °F 31.6 °F 24.1 °F 59% 30.34 in 10.0 mi SSW 6.9 mph - N/A   Clear
10:53 AM 42.1 °F 39.2 °F 26.1 °F 53% 30.32 in 10.0 mi SW 4.6 mph - N/A   Clear
11:53 AM 46.0 °F 41.0 °F 28.9 °F 51% 30.29 in 10.0 mi WSW 10.4 mph - N/A   Clear
12:53 PM 46.0 °F 40.6 °F 30.9 °F 56% 30.25 in 10.0 mi SW 11.5 mph - N/A   Mostly Cloudy
1:53 PM 48.0 °F - 33.1 °F 56% 30.23 in 10.0 mi SW 10.4 mph - N/A   Clear
2:53 PM 51.1 °F - 36.0 °F 56% 30.19 in 10.0 mi SW 9.2 mph - N/A   Clear
3:53 PM 51.1 °F - 37.0 °F 59% 30.19 in 10.0 mi SW 6.9 mph - N/A   Clear
4:53 PM 48.9 °F - 37.0 °F 64% 30.19 in 10.0 mi WSW 6.9 mph - N/A   Clear
5:53 PM 44.1 °F 40.1 °F 37.0 °F 76% 30.19 in 10.0 mi SW 6.9 mph - N/A   Clear
6:53 PM 42.1 °F 37.7 °F 36.0 °F 79% 30.18 in 10.0 mi SW 6.9 mph - N/A   Clear
7:53 PM 42.1 °F - 35.1 °F 76% 30.20 in 10.0 mi Calm Calm - N/A   Clear
9:53 PM 37.0 °F - 33.1 °F 86% 30.23 in 10.0 mi Calm Calm - N/A   Clear
10:53 PM 34.0 °F 31.0 °F 32.0 °F 92% 30.23 in 10.0 mi ENE 3.5 mph - N/A   Clear
11:53 PM 32.0 °F 26.4 °F 30.0 °F 92% 30.25 in 9.0 mi NNE 5.8 mph - N/A   Clear